Location: Newark
(25.4297°S, 49.2719°W)
Time: 15:23:13
(UTC+00:00)

Hubble Space Telescope - Pass Details

Date: 29 June 2021
Orbit: 535 x 539 km, 28.5° (Epoch: 25 July)

Event Time Altitude Azimuth Distance (km) Brightness Sun altitude
Rises 21:32:56 0° 318° (NW) 2,662 5.5 -12.3°
Reaches altitude 10° 21:35:31 10° 333° (NNW) 1,776 4.1 -12.9°
Maximum altitude 21:38:48 23° 26° (NNE) 1,158 2.4 -13.6°
Enters shadow 21:41:01 15° 68° (ENE) 1,475 2.6 -14.0°
